TimeMDT,TemperatureF,Dew PointF,Humidity,Sea Level PressureIn,VisibilityMPH,Wind Direction,Wind SpeedMPH,Gust SpeedMPH,PrecipitationIn,Events,Conditions,WindDirDegrees,DateUTC
12:15 AM,61.7,56.3,82,30.26,10.0,NNW,6.9,-,N/A,,Clear,330,2013-08-07 06:15:00
12:35 AM,60.1,55.8,86,30.26,10.0,NW,8.1,-,N/A,,Clear,310,2013-08-07 06:35:00
12:55 AM,59.9,55.6,86,30.26,10.0,NNW,8.1,-,N/A,,Clear,330,2013-08-07 06:55:00
1:15 AM,60.3,55.4,84,30.26,10.0,WNW,6.9,-,N/A,,Mostly Cloudy,290,2013-08-07 07:15:00
1:35 AM,60.1,55.2,84,30.26,10.0,WNW,8.1,-,N/A,,Overcast,300,2013-08-07 07:35:00
1:55 AM,60.4,55.4,83,30.24,10.0,West,6.9,-,N/A,Rain,Light Rain,280,2013-08-07 07:55:00
2:15 AM,59.7,55.6,86,30.25,10.0,West,4.6,-,N/A,,Mostly Cloudy,280,2013-08-07 08:15:00
2:35 AM,58.6,55.4,89,30.24,10.0,WNW,3.5,-,N/A,,Scattered Clouds,290,2013-08-07 08:35:00
2:55 AM,58.3,55.8,91,30.24,10.0,Calm,Calm,-,N/A,,Mostly Cloudy,0,2013-08-07 08:55:00
3:15 AM,58.1,55.6,91,30.24,10.0,Calm,Calm,-,N/A,,Overcast,0,2013-08-07 09:15:00
3:35 AM,59.5,55.4,86,30.24,10.0,Calm,Calm,-,N/A,,Overcast,0,2013-08-07 09:35:00
3:55 AM,59.7,55.2,85,30.21,10.0,North,5.8,-,N/A,Rain,Light Rain,10,2013-08-07 09:55:00
4:15 AM,59.4,55.8,88,30.22,10.0,SSE,3.5,-,N/A,,Overcast,160,2013-08-07 10:15:00
4:35 AM,58.1,55.8,92,30.21,10.0,Calm,Calm,-,N/A,,Overcast,0,2013-08-07 10:35:00
4:55 AM,57.6,55.2,92,30.22,10.0,Calm,Calm,-,N/A,,Mostly Cloudy,0,2013-08-07 10:55:00
5:15 AM,57.4,54.9,91,30.22,10.0,Calm,Calm,-,N/A,,Mostly Cloudy,0,2013-08-07 11:15:00
5:35 AM,58.3,54.5,87,30.22,10.0,Calm,Calm,-,N/A,,Overcast,0,2013-08-07 11:35:00
5:55 AM,57.4,55.4,93,30.23,10.0,Calm,Calm,-,N/A,,Overcast,0,2013-08-07 11:55:00
6:15 AM,57.7,56.3,95,30.23,10.0,Calm,Calm,-,N/A,,Overcast,0,2013-08-07 12:15:00
6:35 AM,57.4,56.3,96,30.24,10.0,NNW,4.6,-,N/A,,Overcast,340,2013-08-07 12:35:00
6:55 AM,57.9,56.7,96,30.24,10.0,Calm,Calm,-,N/A,,Overcast,0,2013-08-07 12:55:00
7:15 AM,58.5,57.0,95,30.24,10.0,Calm,Calm,-,N/A,Thunderstorm,Overcast,0,2013-08-07 13:15:00
7:35 AM,59.0,56.7,92,30.25,10.0,WNW,3.5,-,N/A,Thunderstorm,Overcast,290,2013-08-07 13:35:00
7:55 AM,59.7,55.8,87,30.26,10.0,Calm,Calm,-,N/A,Rain-Thunderstorm,Light Thunderstorms and Rain,0,2013-08-07 13:55:00
8:15 AM,59.9,54.9,83,30.26,10.0,Calm,Calm,-,N/A,Thunderstorm,Thunderstorm,0,2013-08-07 14:15:00
8:35 AM,59.9,55.9,87,30.27,10.0,NNW,3.5,-,N/A,Thunderstorm,Overcast,330,2013-08-07 14:35:00
8:55 AM,59.0,55.2,87,30.28,10.0,WNW,11.5,-,0.02,Rain-Thunderstorm,Thunderstorms and Rain,290,2013-08-07 14:55:00
9:15 AM,58.1,55.0,90,30.28,7.0,Calm,Calm,-,0.03,Rain-Thunderstorm,Thunderstorms and Rain,0,2013-08-07 15:15:00
9:35 AM,58.1,56.3,94,30.29,10.0,NE,3.5,-,0.04,Rain-Thunderstorm,Light Thunderstorms and Rain,50,2013-08-07 15:35:00
9:55 AM,58.3,56.3,93,30.29,7.0,East,4.6,-,0.05,Rain-Thunderstorm,Light Thunderstorms and Rain,100,2013-08-07 15:55:00
10:15 AM,58.1,56.7,95,30.29,7.0,ESE,8.1,-,0.02,Rain-Thunderstorm,Rain,110,2013-08-07 16:15:00
10:35 AM,58.5,57.0,95,30.29,10.0,SE,3.5,-,0.04,Rain-Thunderstorm,Light Thunderstorms and Rain,130,2013-08-07 16:35:00
10:55 AM,59.9,57.4,91,30.29,10.0,ESE,3.5,-,0.04,Thunderstorm,Overcast,120,2013-08-07 16:55:00
11:15 AM,60.8,56.3,85,30.28,10.0,SE,3.5,-,N/A,Thunderstorm,Mostly Cloudy,130,2013-08-07 17:15:00
11:35 AM,61.0,55.9,83,30.28,10.0,SSW,4.6,-,N/A,,Scattered Clouds,200,2013-08-07 17:35:00
11:55 AM,62.8,55.4,77,30.27,10.0,Calm,Calm,-,N/A,,Scattered Clouds,0,2013-08-07 17:55:00
12:15 PM,62.2,56.5,81,30.26,10.0,Calm,Calm,-,N/A,Rain,Light Rain,0,2013-08-07 18:15:00
12:35 PM,62.6,56.3,80,30.26,10.0,Calm,Calm,-,N/A,,Overcast,0,2013-08-07 18:35:00
12:55 PM,62.2,56.1,80,30.26,10.0,Calm,Calm,-,N/A,,Overcast,0,2013-08-07 18:55:00
1:15 PM,62.6,56.3,80,30.25,7.0,Calm,Calm,-,0.01,Rain,Light Rain,0,2013-08-07 19:15:00
1:35 PM,65.5,57.4,75,30.24,10.0,Calm,Calm,-,0.01,,Overcast,0,2013-08-07 19:35:00
1:55 PM,65.3,57.7,76,30.24,10.0,WNW,8.1,-,0.01,Rain,Light Rain,300,2013-08-07 19:55:00
2:15 PM,66.6,57.0,71,30.24,10.0,NE,4.6,-,N/A,,Overcast,40,2013-08-07 20:15:00
2:35 PM,67.6,54.9,64,30.23,10.0,NNW,3.5,-,N/A,,Overcast,340,2013-08-07 20:35:00
2:55 PM,68.4,54.1,60,30.23,10.0,West,11.5,18.4,N/A,,Overcast,270,2013-08-07 20:55:00
3:15 PM,68.0,53.6,60,30.23,10.0,West,10.4,19.6,N/A,Thunderstorm,Overcast,270,2013-08-07 21:15:00
3:35 PM,68.0,54.1,61,30.23,10.0,West,11.5,18.4,N/A,,Overcast,260,2013-08-07 21:35:00
3:55 PM,67.5,52.2,58,30.23,10.0,WSW,6.9,-,N/A,,Overcast,250,2013-08-07 21:55:00
4:15 PM,67.1,51.4,57,30.22,10.0,West,4.6,-,N/A,,Overcast,280,2013-08-07 22:15:00
4:35 PM,67.6,51.6,56,30.22,10.0,NW,5.8,-,N/A,,Overcast,310,2013-08-07 22:35:00
4:55 PM,68.7,51.6,54,30.21,10.0,WNW,9.2,16.1,N/A,,Overcast,300,2013-08-07 22:55:00
5:15 PM,67.5,51.8,57,30.21,10.0,WNW,8.1,-,N/A,,Overcast,290,2013-08-07 23:15:00
5:35 PM,67.1,50.4,55,30.21,10.0,NNW,6.9,18.4,N/A,,Overcast,330,2013-08-07 23:35:00
5:55 PM,67.1,52.2,59,30.21,10.0,NNW,8.1,-,N/A,,Overcast,330,2013-08-07 23:55:00
6:15 PM,67.1,52.3,59,30.21,10.0,NW,8.1,-,N/A,,Overcast,320,2013-08-08 00:15:00
6:35 PM,67.1,52.3,59,30.20,10.0,NNW,8.1,-,N/A,,Overcast,330,2013-08-08 00:35:00
6:55 PM,67.1,52.7,60,30.20,10.0,NNW,5.8,-,N/A,,Overcast,330,2013-08-08 00:55:00
7:15 PM,66.9,53.6,62,30.20,10.0,NNW,8.1,-,N/A,,Overcast,340,2013-08-08 01:15:00
7:35 PM,66.0,53.4,64,30.20,10.0,North,5.8,-,N/A,,Overcast,10,2013-08-08 01:35:00
7:55 PM,65.5,53.6,65,30.20,10.0,North,5.8,-,N/A,,Overcast,10,2013-08-08 01:55:00
8:15 PM,64.0,56.1,75,30.20,10.0,WNW,4.6,-,N/A,,Mostly Cloudy,300,2013-08-08 02:15:00
8:35 PM,63.0,57.0,81,30.21,10.0,NW,5.8,-,N/A,,Mostly Cloudy,310,2013-08-08 02:35:00
8:55 PM,62.2,57.0,83,30.21,10.0,WNW,4.6,-,N/A,,Overcast,290,2013-08-08 02:55:00
9:15 PM,61.2,57.2,87,30.22,10.0,NW,3.5,-,N/A,,Overcast,310,2013-08-08 03:15:00
9:35 PM,60.6,55.2,82,30.23,10.0,WNW,6.9,-,N/A,,Mostly Cloudy,300,2013-08-08 03:35:00
9:55 PM,61.7,55.6,80,30.24,10.0,NW,4.6,-,N/A,,Overcast,310,2013-08-08 03:55:00
10:15 PM,60.1,55.8,86,30.24,10.0,NW,4.6,-,N/A,,Mostly Cloudy,320,2013-08-08 04:15:00
10:35 PM,59.0,55.4,88,30.24,10.0,NNW,3.5,-,N/A,,Scattered Clouds,340,2013-08-08 04:35:00
10:55 PM,58.6,55.0,88,30.24,10.0,NW,3.5,-,N/A,,Clear,310,2013-08-08 04:55:00
11:15 PM,57.6,54.5,90,30.24,10.0,NNW,4.6,-,N/A,,Clear,330,2013-08-08 05:15:00
11:35 PM,56.7,54.1,91,30.24,10.0,North,5.8,-,N/A,,Clear,350,2013-08-08 05:35:00
11:55 PM,57.4,54.0,88,30.24,10.0,North,4.6,-,N/A,,Clear,360,2013-08-08 05:55:00